This is the latest recevied weather packets stored in our database for station/object KG5WBN. If no packets are shown the sender has not sent any weather packets the latest 10 day(s).
| Time | Temp. | Humidity | Pressure | Rain* | Wind** | Luminosity | Snow |
|---|---|---|---|---|---|---|---|
| 1787608893 | 26.11° C | 99% | 1016.3 hPa | 0 mm | - | 6 W/m² | - |
| 1787608587 | 26.11° C | 99% | 1015.9 hPa | 0 mm | - | 6 W/m² | - |
| 1787608283 | 26.11° C | 99% | 1015.6 hPa | 0 mm | - | 6 W/m² | - |
| 1787607980 | 25.56° C | 99% | 1015.9 hPa | 1.78 mm | - | 6 W/m² | - |
| 1787607676 | 25.56° C | 99% | 1015.9 hPa | 1.78 mm | - | 6 W/m² | - |
| 1787607372 | 26.11° C | 99% | 1015.9 hPa | 0 mm | - | 7 W/m² | - |
| 1787607070 | 25.56° C | 99% | 1015.9 hPa | 0 mm | - | 7 W/m² | - |
| 1787606769 | 26.11° C | 99% | 1015.9 hPa | 0 mm | - | 7 W/m² | - |
| 1787606462 | 26.11° C | 99% | 1015.9 hPa | 0 mm | - | 7 W/m² | - |
| 1787606156 | 26.11° C | 99% | 1015.6 hPa | 0 mm | - | 7 W/m² | - |
| 1787605855 | 26.11° C | 99% | 1015.6 hPa | 0 mm | - | 8 W/m² | - |
| 1787605554 | 26.11° C | 99% | 1015.6 hPa | 0 mm | - | 9 W/m² | - |
| 1787605251 | 25.56° C | 99% | 1015.6 hPa | 0 mm | - | 8 W/m² | - |
| 1787604950 | 25.56° C | 99% | 1015.2 hPa | 0 mm | - | 7 W/m² | - |
| 1787604650 | 25.56° C | 99% | 1015.2 hPa | 1.27 mm | - | 4 W/m² | - |
| 1787604349 | 25.56° C | 99% | 1015.2 hPa | 1.78 mm | - | 4 W/m² | - |
| 1787604044 | 25° C | 99% | 1015.6 hPa | 1.78 mm | - | 4 W/m² | - |
| 1787603739 | 25° C | 99% | 1015.6 hPa | 0 mm | - | 3 W/m² | - |
| 1787603434 | 24.44° C | 99% | 1015.6 hPa | 0 mm | - | 2 W/m² | - |
| 1787603130 | 25° C | 99% | 1015.9 hPa | 18.03 mm | - | 1 W/m² | - |
| 1787602827 | 25.56° C | 99% | 1015.6 hPa | 39.62 mm | - | 1 W/m² | - |
| 1787602526 | 25° C | 97% | 1015.9 hPa | 53.34 mm | - | 0 W/m² | - |
| 1787602221 | 24.44° C | 93% | 1015.9 hPa | 49.28 mm | - | 1 W/m² | - |
| 1787601920 | 25.56° C | 83% | 1015.2 hPa | 15.49 mm | - | 1 W/m² | - |
| 1787601616 | 27.22° C | 59% | 1015.2 hPa | 0 mm | - | 0 W/m² | - |
* Rain latest hour (hover to see other rain measurements)
** Current wind speed in m/s (hover to see current wind gust speed)